Flag for U.S.A. Weather past 2 weeks in Pocatello, Idaho, U.S.A.

Now
88 °F

Passing clouds.


Feels Like: 84 °F
Forecast: 58 / 89 °F
Wind: 14 mph from Northwest

Location: Pocatello Regional Airport

Current Time: Sep 2, 2015 at 4:32:17 PM

Latest Report: Sep 2, 2015 at 2:53 PM


Visibility: 10 mi

Pressure: 29.73 "Hg (25.53 "Hg at 1357m altitude)

Humidity: 15%

Dew point: 34 °F

Location of PocatelloLocation

Historic Weather in Pocatello — Graph

°F

Pocatello temperature yesterday

Maximum temperature yesterday: 88 °F (at 3:53 PM)
Minimum temperature yesterday: 45 °F (at 3:53 AM)
Average temperature yesterday: 68 °F

Past Weeks' High & Low Weather Summary

 TemperatureHumidityPressure
High96 °F (Aug 25, 3:53 PM)90% (Aug 30, 1:53 AM)30.14 "Hg (Aug 30, 1:53 AM)
Low38 °F (Aug 23, 6:53 AM)9% (Aug 23, 2:53 PM)29.68 "Hg (Aug 21, 5:53 PM)
Average70 °F37%29.92 "Hg
* Reported Aug 18 2:53 PM — Sep 2 2:53 PM, Pocatello, Weather by CustomWeather, © 2015

Note: Actual official high and low records may vary slightly from our data, if they occured in-between our weather recording intervals... More about our weather records

Advertising

Pocatello weather history for previous 24 hours

 ConditionsComfort  
Time TempWeatherWind HumidityBarometerVisibility
2:53 PM
Wed, Sep 2
88 °FPassing clouds.14 mph15%29.73 "Hg10 mi
1:53 PM87 °FPassing clouds.10 mph14%29.74 "Hg10 mi
12:53 PM85 °FPassing clouds.12 mph15%29.79 "Hg10 mi
11:53 AM83 °FPassing clouds.17 mph16%29.79 "Hg10 mi
10:53 AM80 °FSunny.20 mph17%29.81 "Hg10 mi
9:53 AM78 °FSunny.17 mph23%29.81 "Hg10 mi
8:53 AM77 °FClear.10 mph21%29.80 "Hg10 mi
7:53 AM74 °FClear.13 mph22%29.80 "Hg10 mi
6:53 AM70 °FClear.8 mph28%29.76 "Hg10 mi
5:53 AM71 °FClear.14 mph28%29.74 "Hg10 mi
4:53 AM74 °FClear.15 mph25%29.70 "Hg10 mi
3:53 AM70 °FClear.12 mph32%29.70 "Hg10 mi
2:53 AM66 °FClear.5 mph37%29.70 "Hg10 mi
1:53 AM70 °FClear.14 mph30%29.71 "Hg10 mi
12:53 AM62 °FClear.N/A44%29.73 "Hg10 mi
11:53 PM
Tue, Sep 1
77 °FClear.12 mph23%29.70 "Hg10 mi
10:53 PM74 °FClear.10 mph24%29.72 "Hg10 mi
9:53 PM76 °FSunny.3 mph23%29.75 "Hg10 mi
8:53 PM75 °FSunny.3 mph23%29.76 "Hg10 mi
7:53 PM77 °FSunny.5 mph24%29.76 "Hg10 mi
6:53 PM87 °FPassing clouds.No wind12%29.76 "Hg10 mi
5:53 PM87 °FSunny.7 mph12%29.77 "Hg10 mi
4:53 PM88 °FSunny.12 mph11%29.79 "Hg10 mi
Weather by CustomWeather, © 2015

See weather overviewHow to use our weather pages